sat.trackr.live / text

‹ back to catalog

STARLINK-31994

NORAD 60588 · 2024-150F

PAYLOAD ACTIVE UNKNOWN

§ Identity

Operator
Country
US
Launch date
2024-08-20
Launch site
AFETR
Launch vehicle
Mass (kg)
RCS (m²)

Purposes: comms

External: N2YO · Heavens-Above · Gunter

§ Orbital elements

Epoch: 2026-05-24T18:14:08.397888Z

Period
93.85 min
Inclination
53.1619°
Eccentricity
0.0001169
Mean motion
15.34389102 rev/d
Perigee alt
461.9 km
Apogee alt
463.5 km
Semi-major
6,840.9 km
B*
4.2661e-5
RAAN
312.5826°
Arg perigee
95.3820°
Mean anomaly
264.7316°
Rev number
9,962

§ Raw data

STARLINK-319941 60588U 24150F   26144.75981942  .00001065  00000+0  42661-4 0  99952 60588  53.1619 312.5826 0001169  95.3820 264.7316 15.34389102 99626

JSON: /api/v1/satellites/60588 · /tle

For live sub-satellite position, see the globe view (requires WebGL).

§ Visibility from observer

Set your observer location to see the next 7 days of passes ≥ 10°. The values pass through the URL so the page stays shareable.

No JS? Fill the form by hand. The geolocation button needs JavaScript.